DECAYED

STARLINK-2307, 47990 (Decayed)

Orbit data source: Space-Track

STARLINK-2307, 47990 was a payload satellite owned by SpaceX/Seattle (US) in LEO that was launched on Wed, 24 Mar 2021 UTC via an FALCON 9 launch vehicle from the Air Force Eastern Test Range (AFETR). Payload-class satellites include a variety of spacecraft equipped with specific instruments for various scientific and technological missions. These include communications satellites like Starlink; space stations such as the ISS; scientific satellites like the Hubble; Earth observation satellites from companies like Planet Labs, Umbra, and HawkEye 360; GPS; miniature CubeSats for education and research; and military/defense satellites.

Not visible in the next 10 days
Identifier
47990, 2021-024P
Orbit
Decayed
Country
Flag of USUS
Related business
Manufacturer
SpaceX/Seattle
Mission
Decayed Commercial Communications
Bus & Motor
STARLINK, Unknown motor
Mass
260 kg wet, ~248 kg dry
Launch date (UTC)
2021-03-24 (5 years ago)
Launch vehicle
FALCON 9
Launch site
Air Force Eastern Test Range (AFETR)
Object type
Payload
Rocket body
Debris
Shape & HBR
Box + 1 Pan, 10.1 m
Radar Cross Section
13.562 m², Large (>1 m²)

Expand to show TLE details & history
Last TLE update: 11 months ago

TLE from 11 months ago
0 STARLINK-2307
1 47990U 21024P   25026.49003919  .09348953  12452-4  58103-3 0  9997
2 47990  53.0147 241.8769 0003393 338.7156  99.5165 16.41284272214367
Epoch: 2025-01-26T11:45Z
TLE epoch observation values (Epoch: 2025-01-26T11:45:39.386Z)
Latitude
51.61158°
Longitude
10.37695°
Altitude
168.877 km
Speed
7.811 km/s
True Right ascension
20h 51m 15s
True Declination
51° 25' 44"
Sunlit
Object was in daylight at epoch
Visualization orbit readout
Latitude
Unknown
Longitude
Unknown
Altitude
Unknown
Speed
Unknown
Apparent Right ascension
Unknown
Apparent Declination
Unknown
Sunlit
N/A
Visualization observer readout
Local Sidereal Time
17:05:15
Azimuth
Unknown
Elevation
Unknown
Doppler factor
Unknown
Orbital elements
Apogee altitude
164.901 km
Perigee altitude
160.462 km
Semi-major axis
6,540.818 km
Eccentricity
0.00034
Inclination
53.0147°
RAAN
241.8769°
Arg. of periapsis
338.7156°
True anomaly
99.55484°
Mean anomaly
99.5165°
Eccentric anomaly
99.53567°
Mean motion
4.10294 °/min
Orbital period
87.74 mins
BSTAR
0.00058103
Loading maneuver chart data...
Computing Atmospheric mass density...

Documentation

Showing up to 5 results
|